sat.trackr.live / text

‹ back to catalog

IRIDIUM 149

NORAD 43250 · 2018-030B

PAYLOAD ACTIVE UNKNOWN

§ Identity

Operator
Country
US
Launch date
2018-03-30
Launch site
AFWTR
Launch vehicle
Mass (kg)
RCS (m²)

Purposes: comms

External: N2YO · Heavens-Above · Gunter

§ Orbital elements

Epoch: 2026-09-10T01:48:39.292992Z

Period
100.40 min
Inclination
86.3908°
Eccentricity
0.0002241
Mean motion
14.34217600 rev/d
Perigee alt
776.1 km
Apogee alt
779.3 km
Semi-major
7,155.8 km
B*
4.5550e-6
RAAN
254.8579°
Arg perigee
90.3365°
Mean anomaly
269.8088°
Rev number
44,232

§ Raw data

IRIDIUM 1491 43250U 18030B   26253.07545478  .00000033  00000+0  45550-5 0  99932 43250  86.3908 254.8579 0002241  90.3365 269.8088 14.34217600442329

JSON: /api/v1/satellites/43250 · /tle

For live sub-satellite position, see the globe view (requires WebGL).

§ Visibility from observer

Set your observer location to see the next 7 days of passes ≥ 10°. The values pass through the URL so the page stays shareable.

No JS? Fill the form by hand. The geolocation button needs JavaScript.